Overview Statistics Trail Chart Weather Telemetry Raw packets
 

This is the latest recevied weather packets stored in our database for station/object K6CED. If no packets are shown the sender has not sent any weather packets the latest 10 day(s).

<< 20 21 22 23 24 25 26 >>
Time Temp. Humidity Pressure Rain* Wind** Luminosity Snow
1788533136 16.11° C 91% 1016.3 hPa 0 mm - 109 W/m² -
1788532832 16.11° C 92% 1016.2 hPa 0 mm - 99 W/m² -
1788532527 16.11° C 92% 1016.1 hPa 0 mm - 83 W/m² -
1788532224 16.11° C 92% 1016.2 hPa 0 mm - 78 W/m² -
1788531920 15.56° C 92% 1016.1 hPa 0 mm - 63 W/m² -
1788531619 15.56° C 93% 1016.1 hPa 0 mm - 51 W/m² -
1788531314 15.56° C 93% 1016.3 hPa 0 mm - 42 W/m² -
1788531010 15.56° C 93% 1016 hPa 0 mm - 33 W/m² -
1788530705 15.56° C 94% 1016.1 hPa 0 mm - 29 W/m² -
1788530405 15.56° C 94% 1016.1 hPa 0 mm - 24 W/m² -
1788530098 15.56° C 94% 1015.8 hPa 0 mm - 17 W/m² -
1788529795 15.56° C 94% 1016 hPa 0 mm - 13 W/m² -
1788529495 15.56° C 94% 1016 hPa 0 mm - 10 W/m² -
1788529189 15.56° C 95% 1015.8 hPa 0 mm - 6 W/m² -
1788528884 15° C 95% 1015.8 hPa 0 mm - 4 W/m² -
1788528580 15° C 94% 1015.9 hPa 0 mm - 3 W/m² -
1788528275 15.56° C 95% 1015.8 hPa 0 mm - 2 W/m² -
1788527974 15° C 95% 1015.8 hPa 0 mm - 1 W/m² -
1788527670 15° C 95% 1015.8 hPa 0 mm - 0 W/m² -
1788527366 15° C 95% 1015.7 hPa 0 mm - 0 W/m² -
1788527064 15° C 95% 1015.6 hPa 0 mm - 0 W/m² -
1788526759 15.56° C 95% 1015.6 hPa 0 mm - 0 W/m² -
1788526456 15.56° C 95% 1015.7 hPa 0 mm - 0 W/m² -
1788526155 15.56° C 95% 1015.5 hPa 0 mm - 0 W/m² -
1788525851 15.56° C 95% 1015.4 hPa 0 mm - 0 W/m² -

* Rain latest hour (hover to see other rain measurements)
** Current wind speed in m/s (hover to see current wind gust speed)